Location: Makanda
(37.6176°N, 89.2090°W)
Time: 22:18:29
(UTC+00:00)

MONITOR-E - Pass Details

Date: 23 September 2019
Orbit: 347 x 348 km, 97.1° (Epoch: 21 October)

Event Time Altitude Azimuth Distance (km) Brightness Sun altitude
Exits shadow 01:18:37 24° 182° (S) 775 5.5 -17.4°
Maximum altitude 01:20:06 66° 259° (W) 391 4.2 -17.7°
Drops below altitude 10° 01:22:54 10° 343° (NNW) 1,328 7.2 -18.2°
Sets 01:24:51 0° 346° (NNW) 2,175 8.3 -18.6°
